Total_Precipitation_Accumulation
0.30 0.22 0.24 0.26 0.22 0.23 0.36 0.37 0.28 0.13 0.11 0.12 0.12 0.14 0.16 0.17 0.18 0.16 0.14 0.16 0.23 0.27 0.27 0.33 0.41 0.50 0.53 0.49 0.45 0.42 0.47 0.55 0.61 0.65 0.72 0.75 0.76 0.87 1.05 1.02 0.88 0.79 0.76 0.79
0.25 0.17 0.18 0.19 0.15 0.16 0.18 0.17 0.15 0.10 0.10 0.13 0.13 0.11 0.14 0.17 0.18 0.20 0.19 0.19 0.23 0.28 0.28 0.34 0.41 0.51 0.60 0.53 0.47 0.40 0.43 0.50 0.56 0.65 0.78 0.80 0.75 0.79 0.89 0.97 0.92 0.83 0.77 0.75
0.38 0.18 0.33 0.35 0.21 0.19 0.18 0.15 0.18 0.20 0.16 0.12 0.13 0.13 0.16 0.19 0.21 0.22 0.23 0.25 0.26 0.29 0.32 0.38 0.41 0.49 0.57 0.55 0.51 0.43 0.44 0.49 0.54 0.58 0.72 0.79 0.78 0.83 0.84 0.87 0.94 0.95 0.83 0.73
0.64 0.46 0.69 0.31 0.15 0.15 0.16 0.17 0.19 0.18 0.14 0.12 0.13 0.13 0.15 0.20 0.24 0.26 0.26 0.26 0.27 0.31 0.37 0.37 0.40 0.42 0.48 0.51 0.49 0.46 0.47 0.53 0.57 0.55 0.60 0.72 0.81 0.82 0.81 0.81 0.83 0.89 0.88 0.79
1.00 0.72 0.40 0.17 0.15 0.17 0.21 0.23 0.17 0.13 0.11 0.10 0.10 0.10 0.11 0.12 0.18 0.25 0.26 0.25 0.27 0.31 0.36 0.37 0.36 0.36 0.42 0.48 0.46 0.48 0.53 0.56 0.57 0.52 0.53 0.62 0.71 0.78 0.79 0.79 0.74 0.75 0.80 0.79
1.14 0.85 0.39 0.23 0.16 0.13 0.17 0.33 0.17 0.13 0.14 0.12 0.13 0.19 0.15 0.11 0.16 0.24 0.22 0.22 0.26 0.29 0.30 0.33 0.36 0.35 0.40 0.45 0.41 0.45 0.49 0.55 0.52 0.47 0.44 0.45 0.55 0.70 0.77 0.77 0.73 0.71 0.74 0.75
0.97 0.75 0.31 0.21 0.17 0.16 0.31 0.38 0.18 0.15 0.15 0.14 0.16 0.22 0.17 0.15 0.19 0.22 0.17 0.19 0.22 0.25 0.27 0.33 0.36 0.33 0.37 0.42 0.41 0.43 0.47 0.52 0.47 0.44 0.44 0.44 0.50 0.63 0.71 0.79 0.81 0.75 0.71 0.72
0.70 0.79 0.41 0.21 0.23 0.35 0.39 0.22 0.15 0.13 0.12 0.12 0.11 0.10 0.11 0.14 0.19 0.20 0.16 0.16 0.16 0.19 0.23 0.28 0.31 0.31 0.37 0.43 0.43 0.46 0.47 0.44 0.43 0.45 0.47 0.48 0.51 0.59 0.69 0.78 0.85 0.79 0.71 0.70
0.49 0.41 0.27 0.22 0.30 0.31 0.24 0.17 0.12 0.11 0.11 0.10 0.10 0.10 0.12 0.15 0.17 0.20 0.18 0.17 0.17 0.19 0.21 0.26 0.29 0.30 0.37 0.43 0.40 0.43 0.43 0.41 0.40 0.44 0.46 0.48 0.53 0.61 0.69 0.77 0.80 0.79 0.71 0.66
0.33 0.20 0.16 0.17 0.20 0.21 0.16 0.13 0.11 0.11 0.11 0.10 0.10 0.11 0.13 0.16 0.17 0.18 0.19 0.18 0.18 0.20 0.22 0.27 0.29 0.29 0.35 0.40 0.37 0.36 0.36 0.40 0.38 0.42 0.47 0.51 0.56 0.61 0.66 0.75 0.81 0.73 0.67 0.63
0.31 0.17 0.14 0.14 0.15 0.16 0.14 0.12 0.11 0.12 0.11 0.11 0.11 0.13 0.14 0.17 0.18 0.19 0.22 0.21 0.20 0.21 0.22 0.28 0.31 0.33 0.36 0.35 0.33 0.33 0.33 0.39 0.44 0.46 0.51 0.56 0.59 0.61 0.64 0.66 0.79 0.77 0.66 0.65
0.28 0.19 0.19 0.18 0.16 0.15 0.14 0.14 0.14 0.14 0.13 0.12 0.13 0.17 0.16 0.16 0.18 0.20 0.23 0.24 0.22 0.23 0.24 0.29 0.33 0.39 0.38 0.32 0.30 0.32 0.36 0.40 0.47 0.52 0.53 0.54 0.54 0.57 0.64 0.66 0.70 0.69 0.64 0.64
0.16 0.16 0.18 0.17 0.14 0.13 0.13 0.13 0.13 0.13 0.14 0.13 0.13 0.16 0.19 0.19 0.19 0.20 0.23 0.26 0.28 0.27 0.29 0.32 0.34 0.40 0.38 0.31 0.28 0.30 0.36 0.40 0.45 0.51 0.49 0.47 0.47 0.47 0.52 0.63 0.72 0.70 0.66 0.63
0.10 0.12 0.14 0.12 0.11 0.09 0.09 0.10 0.10 0.10 0.11 0.12 0.12 0.13 0.17 0.18 0.17 0.18 0.22 0.27 0.31 0.30 0.30 0.32 0.34 0.37 0.36 0.30 0.27 0.28 0.32 0.39 0.41 0.45 0.46 0.46 0.45 0.45 0.46 0.51 0.61 0.66 0.68 0.66
0.06 0.08 0.09 0.07 0.06 0.06 0.06 0.07 0.07 0.08 0.08 0.08 0.09 0.11 0.14 0.17 0.18 0.20 0.23 0.28 0.31 0.29 0.29 0.32 0.36 0.41 0.38 0.30 0.27 0.28 0.33 0.34 0.34 0.38 0.43 0.45 0.46 0.48 0.48 0.49 0.53 0.57 0.62 0.73
0.07 0.07 0.07 0.06 0.06 0.06 0.06 0.06 0.07 0.07 0.07 0.08 0.08 0.09 0.11 0.15 0.19 0.22 0.25 0.28 0.31 0.31 0.32 0.35 0.38 0.42 0.39 0.32 0.30 0.29 0.35 0.40 0.37 0.38 0.43 0.46 0.48 0.52 0.55 0.57 0.59 0.59 0.61 0.67
0.13 0.11 0.10 0.09 0.07 0.06 0.06 0.06 0.06 0.07 0.07 0.08 0.08 0.09 0.09 0.12 0.16 0.20 0.24 0.28 0.30 0.32 0.33 0.34 0.38 0.41 0.40 0.37 0.34 0.33 0.35 0.39 0.43 0.40 0.40 0.43 0.48 0.52 0.56 0.61 0.63 0.60 0.56 0.63
0.16 0.15 0.11 0.11 0.09 0.08 0.07 0.05 0.05 0.06 0.08 0.09 0.09 0.10 0.11 0.14 0.17 0.22 0.26 0.28 0.29 0.33 0.36 0.36 0.38 0.41 0.41 0.43 0.39 0.37 0.37 0.38 0.39 0.39 0.41 0.44 0.49 0.53 0.58 0.62 0.62 0.63 0.62 0.68
0.12 0.12 0.10 0.10 0.09 0.08 0.08 0.08 0.07 0.08 0.08 0.09 0.10 0.12 0.13 0.16 0.19 0.23 0.27 0.28 0.28 0.31 0.36 0.38 0.43 0.41 0.41 0.45 0.45 0.40 0.40 0.41 0.43 0.41 0.42 0.53 0.56 0.54 0.58 0.62 0.65 0.67 0.69 0.71
0.12 0.11 0.09 0.09 0.08 0.08 0.10 0.10 0.09 0.08 0.08 0.09 0.12 0.12 0.13 0.16 0.20 0.23 0.26 0.27 0.29 0.32 0.34 0.38 0.40 0.39 0.40 0.47 0.50 0.43 0.45 0.48 0.48 0.45 0.46 0.52 0.57 0.59 0.60 0.63 0.67 0.70 0.70 0.71
0.12 0.10 0.09 0.08 0.08 0.09 0.10 0.11 0.10 0.09 0.09 0.10 0.14 0.16 0.17 0.20 0.22 0.24 0.24 0.24 0.25 0.29 0.32 0.37 0.37 0.36 0.38 0.48 0.55 0.50 0.50 0.50 0.51 0.50 0.50 0.53 0.59 0.63 0.64 0.64 0.67 0.69 0.71 0.72
0.11 0.11 0.10 0.09 0.09 0.11 0.12 0.12 0.13 0.13 0.12 0.12 0.15 0.17 0.18 0.20 0.20 0.21 0.22 0.23 0.26 0.32 0.32 0.32 0.31 0.36 0.43 0.50 0.52 0.51 0.50 0.51 0.52 0.54 0.55 0.57 0.62 0.68 0.67 0.65 0.70 0.70 0.70 0.72
0.12 0.12 0.13 0.14 0.14 0.16 0.14 0.13 0.14 0.15 0.15 0.15 0.17 0.19 0.21 0.22 0.22 0.23 0.24 0.25 0.28 0.35 0.34 0.33 0.36 0.42 0.51 0.49 0.48 0.50 0.50 0.51 0.53 0.55 0.58 0.60 0.63 0.67 0.69 0.69 0.70 0.71 0.75 0.76
0.16 0.14 0.15 0.16 0.17 0.18 0.16 0.15 0.16 0.18 0.19 0.20 0.19 0.21 0.23 0.24 0.24 0.24 0.27 0.33 0.36 0.39 0.37 0.40 0.44 0.48 0.53 0.49 0.48 0.51 0.55 0.57 0.58 0.61 0.64 0.66 0.67 0.70 0.69 0.69 0.71 0.70 0.73 0.74
0.19 0.17 0.17 0.17 0.19 0.20 0.20 0.19 0.18 0.19 0.20 0.22 0.22 0.22 0.25 0.28 0.31 0.30 0.31 0.35 0.39 0.42 0.42 0.46 0.50 0.51 0.51 0.52 0.53 0.55 0.61 0.63 0.68 0.76 0.77 0.73 0.71 0.72 0.69 0.66 0.70 0.74 0.74 0.73
0.23 0.23 0.23 0.23 0.24 0.24 0.24 0.22 0.21 0.21 0.20 0.23 0.24 0.25 0.29 0.32 0.34 0.35 0.36 0.38 0.41 0.45 0.45 0.45 0.48 0.52 0.54 0.59 0.62 0.64 0.69 0.72 0.75 0.75 0.70 0.68 0.68 0.69 0.67 0.65 0.68 0.72 0.73 0.72
0.27 0.27 0.27 0.28 0.29 0.28 0.28 0.29 0.30 0.30 0.28 0.30 0.32 0.32 0.33 0.36 0.39 0.41 0.42 0.43 0.45 0.46 0.48 0.50 0.53 0.58 0.63 0.66 0.70 0.73 0.75 0.76 0.76 0.75 0.71 0.70 0.70 0.68 0.66 0.67 0.69 0.70 0.70 0.67